Location: Pic du Midi - T1M
(42.9366°N, 0.1426°E)
Time: 02:06:57
(UTC+01:00)

DX 1 - Pass Details

Date: 24 September 2021
Orbit: 618 x 630 km, 98.4° (Epoch: 19 October)

Event Time Altitude Azimuth Distance (km) Brightness Sun altitude
Rises 22:20:18 0° 355° (N) 2,897 ? -36.1°
Reaches altitude 10° 22:23:22 10° 331° (NNW) 1,987 ? -36.5°
Maximum altitude 22:25:41 14° 298° (WNW) 1,710 ? -36.8°
Enters shadow 22:26:24 14° 287° (WNW) 1,738 ? -36.9°
